TimeEDT,TemperatureF,Dew PointF,Humidity,Sea Level PressureIn,VisibilityMPH,Wind Direction,Wind SpeedMPH,Gust SpeedMPH,PrecipitationIn,Events,Conditions,WindDirDegrees,DateUTC
12:41 AM,80.6,69.8,70,29.93,10.0,SSW,9.2,-,N/A,Thunderstorm,Thunderstorm,210,2013-06-26 04:41:00
12:53 AM,80.1,70.0,71,29.90,10.0,SSW,8.1,-,N/A,Thunderstorm,Thunderstorm,200,2013-06-26 04:53:00
1:07 AM,78.8,71.6,78,29.92,10.0,SSW,6.9,-,N/A,,Partly Cloudy,200,2013-06-26 05:07:00
1:29 AM,78.8,71.6,78,29.92,10.0,SSW,12.7,18.4,N/A,Thunderstorm,Partly Cloudy,210,2013-06-26 05:29:00
1:36 AM,73.4,66.2,78,29.94,1.8,West,10.4,38.0,0.17,Rain-Thunderstorm,Heavy Thunderstorms and Rain,260,2013-06-26 05:36:00
1:45 AM,71.6,64.4,78,29.93,4.0,WSW,8.1,-,0.18,Rain-Thunderstorm,Thunderstorms and Rain,250,2013-06-26 05:45:00
1:53 AM,71.1,64.9,81,29.89,8.0,SW,5.8,-,0.18,Rain-Thunderstorm,Light Thunderstorms and Rain,220,2013-06-26 05:53:00
2:27 AM,69.8,66.2,88,29.94,10.0,SSW,4.6,-,0.01,Rain,Light Rain,210,2013-06-26 06:27:00
2:53 AM,71.1,66.0,84,29.90,10.0,West,5.8,-,0.01,,Partly Cloudy,260,2013-06-26 06:53:00
3:53 AM,70.0,66.9,90,29.91,8.0,SSW,3.5,-,N/A,,Scattered Clouds,210,2013-06-26 07:53:00
4:45 AM,69.8,64.4,83,29.95,10.0,WSW,6.9,-,0.00,Rain-Thunderstorm,Light Rain,240,2013-06-26 08:45:00
4:53 AM,70.0,64.9,84,29.92,10.0,WSW,6.9,-,0.01,Rain-Thunderstorm,Light Rain,240,2013-06-26 08:53:00
4:56 AM,69.8,64.4,83,29.95,10.0,WSW,11.5,-,0.00,Rain-Thunderstorm,Light Rain,240,2013-06-26 08:56:00
5:17 AM,69.8,64.4,83,29.95,10.0,WSW,5.8,-,0.01,Rain,Light Rain,250,2013-06-26 09:17:00
5:53 AM,68.0,66.0,93,29.94,6.0,SW,5.8,-,0.04,Rain,Rain,220,2013-06-26 09:53:00
6:53 AM,68.0,66.0,93,29.90,6.0,South,6.9,-,0.10,Rain,Light Rain,190,2013-06-26 10:53:00
7:05 AM,68.0,66.2,94,29.90,5.0,South,8.1,-,0.00,Rain,Light Rain,170,2013-06-26 11:05:00
7:53 AM,69.1,66.9,93,29.92,10.0,WSW,9.2,-,0.00,,Mostly Cloudy,250,2013-06-26 11:53:00
8:53 AM,70.0,66.9,90,29.91,10.0,West,6.9,-,N/A,,Clear,260,2013-06-26 12:53:00
9:53 AM,73.0,66.0,79,29.91,10.0,SW,9.2,-,N/A,,Partly Cloudy,220,2013-06-26 13:53:00
10:53 AM,75.0,66.9,76,29.90,10.0,SSW,9.2,-,N/A,,Partly Cloudy,200,2013-06-26 14:53:00
11:53 AM,77.0,66.9,71,29.91,10.0,SW,5.8,-,N/A,,Clear,220,2013-06-26 15:53:00
12:53 PM,80.1,68.0,67,29.89,10.0,SSW,8.1,-,N/A,,Clear,200,2013-06-26 16:53:00
1:53 PM,81.0,69.1,67,29.88,10.0,SW,6.9,-,N/A,,Clear,230,2013-06-26 17:53:00
2:30 PM,82.4,69.8,66,29.89,10.0,SW,6.9,-,N/A,,Mostly Cloudy,220,2013-06-26 18:30:00
2:45 PM,82.4,69.8,66,29.88,10.0,WSW,8.1,-,N/A,,Mostly Cloudy,240,2013-06-26 18:45:00
2:53 PM,84.0,71.1,65,29.85,10.0,SW,9.2,-,N/A,,Scattered Clouds,220,2013-06-26 18:53:00
3:41 PM,82.4,69.8,66,29.85,10.0,SW,12.7,18.4,N/A,Thunderstorm,Mostly Cloudy,220,2013-06-26 19:41:00
3:53 PM,82.0,69.1,65,29.84,10.0,WSW,11.5,19.6,N/A,Thunderstorm,Thunderstorm,250,2013-06-26 19:53:00
4:08 PM,75.2,66.2,73,29.86,10.0,WNW,9.2,21.9,N/A,Thunderstorm,Thunderstorm,290,2013-06-26 20:08:00
4:39 PM,80.6,66.2,61,29.82,10.0,SW,3.5,-,N/A,,Partly Cloudy,230,2013-06-26 20:39:00
4:53 PM,80.1,69.1,69,29.80,10.0,Calm,Calm,-,0.00,Rain,Light Rain,0,2013-06-26 20:53:00
5:53 PM,77.0,69.1,76,29.81,1.5,SW,13.8,27.6,0.10,Rain-Thunderstorm,Thunderstorms and Rain,220,2013-06-26 21:53:00
6:02 PM,75.2,71.6,89,29.82,4.0,SSW,9.2,-,0.00,Rain-Thunderstorm,Light Thunderstorms and Rain,200,2013-06-26 22:02:00
6:26 PM,75.2,71.6,89,29.82,9.0,South,12.7,16.1,0.00,Thunderstorm,Thunderstorm,170,2013-06-26 22:26:00
6:44 PM,73.4,69.8,88,29.81,9.0,SSW,6.9,-,0.01,Rain,Light Rain,210,2013-06-26 22:44:00
6:53 PM,73.0,70.0,90,29.80,6.0,SW,3.5,-,0.01,Rain-Thunderstorm,Light Rain,230,2013-06-26 22:53:00
7:07 PM,71.6,69.8,94,29.82,7.0,SSW,10.4,-,0.02,Rain,Light Rain,200,2013-06-26 23:07:00
7:53 PM,71.1,68.0,90,29.80,10.0,SSE,4.6,-,0.02,,Clear,160,2013-06-26 23:53:00
8:51 PM,69.8,68.0,94,29.80,10.0,South,5.8,-,0.00,,Mostly Cloudy,190,2013-06-27 00:51:00
8:53 PM,70.0,68.0,93,29.79,10.0,South,6.9,-,0.00,,Mostly Cloudy,180,2013-06-27 00:53:00
9:08 PM,69.8,68.0,94,29.80,10.0,South,6.9,-,N/A,,Mostly Cloudy,190,2013-06-27 01:08:00
9:19 PM,69.8,68.0,94,29.80,10.0,SSW,8.1,-,N/A,,Overcast,200,2013-06-27 01:19:00
9:53 PM,70.0,69.1,97,29.78,8.0,South,4.6,-,N/A,,Overcast,190,2013-06-27 01:53:00
10:17 PM,69.8,69.8,100,29.79,7.0,Calm,Calm,-,N/A,,Overcast,0,2013-06-27 02:17:00
10:53 PM,70.0,68.0,93,29.78,6.0,South,8.1,-,N/A,,Overcast,190,2013-06-27 02:53:00
11:53 PM,70.0,68.0,93,29.79,6.0,SSW,6.9,-,N/A,,Overcast,200,2013-06-27 03:53:00